Regional Weather Roundup
Issued by NWS Goodland, KS

Home | Current Version | Previous Version | Text Only | Print | Product List | Glossary Off
Versions: 1 2 3 4 5 6 7 8 9 10 11 12 13 14 15 16 17 18 19 20 21 22 23 24 25 26 27 28 29 30 31 32 33 34 35 36 37 38 39 40 41 42 43 44 45 46 47 48 49 50

000
ASUS43 KGLD 050808
RWRGLD

GOODLAND FORECAST AREA HOURLY WEATHER ROUNDUP
NATIONAL WEATHER SERVICE GOODLAND KS
200 AM MDT SAT SEP 05 2015

...OFFICIAL OBSERVATIONS...

CITY           SKY/WX    TMP DP  RH WIND       PRES   REMARKS
GOODLAND KS    CLOUDY    74  56  53 S13       29.91S
HILL CITY KS   CLEAR     78  59  51 S13       29.89S
IMPERIAL NEB   CLOUDY    78  54  43 S13       29.84S
MCCOOK NEB     PTCLDY    80  58  46 S15G25    29.84S
AKRON CO       CLOUDY    70  55  59 SW7       29.90S
BURLINGTON CO  CLOUDY    73  48  41 S10       29.94S
LIMON CO       MOCLDY    65  50  58 SW5       29.99S
$$

...UNOFFICIAL OBSERVATIONS...

CITY           SKY/WX    TMP DP  RH WIND       PRES   REMARKS
COLBY KS       CLEAR     79  61  53 S15       29.91S
GOVE KS          N/A     79  32  18 MISG        N/A
LENORA KS        N/A     77  32  19 MISG        N/A
NORTON KS      CLEAR     79  55  44 S14G21    29.87S
SHARON SPRINGS   N/A     74  58  57 S10         N/A
TRENTON NEB      N/A     79  32  18 S12         N/A
KIT CARSON CO    N/A     71  51  48 MISG        N/A
YUMA CO          N/A     74  52  45 SW10        N/A
$$



USA.gov is the U.S. government's official web portal to all federal, state and local government web resources and services.